WAT276 LPPS-LPFR

Flight info

Callsign WAT276
Flight time 1h 13m
Altitude 34000
Route DEGUN DCT NARTA DCT GIMAL
Aircraft A306/H-SDE3FGHIRWY/LB1

Departure

Time 2026-05-07 17:38
Airport Porto Santo Airport (LPPS)

Arrival

Time 2026-05-07 18:51
Airport Faro - Gago Coutinho International Airport (LPFR)
Time Latitude Longitude Altitude Speed Heading
2026-05-07 17:08 33.06993 -16.34626 290 ft 0 kts 311°
2026-05-07 17:32 33.06995 -16.34628 255 ft 2 kts 310°
2026-05-07 17:32 33.06997 -16.34670 255 ft 8 kts 253°
2026-05-07 17:32 33.06972 -16.34756 255 ft 14 kts 256°
2026-05-07 17:33 33.06958 -16.34887 255 ft 16 kts 265°
2026-05-07 17:33 33.06995 -16.34975 257 ft 12 kts 353°
2026-05-07 17:33 33.07079 -16.34980 256 ft 12 kts 357°
2026-05-07 17:33 33.07168 -16.34984 257 ft 13 kts 358°
2026-05-07 17:34 33.07257 -16.34988 258 ft 13 kts 358°
2026-05-07 17:34 33.07355 -16.34993 257 ft 16 kts 358°
2026-05-07 17:34 33.07496 -16.34999 252 ft 24 kts 358°
2026-05-07 17:34 33.07680 -16.35005 252 ft 29 kts 358°
2026-05-07 17:35 33.07894 -16.35015 248 ft 32 kts 358°
2026-05-07 17:35 33.08048 -16.34980 251 ft 20 kts 43°
2026-05-07 17:35 33.08149 -16.34910 254 ft 15 kts 350°
2026-05-07 17:35 33.08180 -16.35002 254 ft 12 kts 255°
2026-05-07 17:36 33.08132 -16.35021 253 ft 0 kts 179°
2026-05-07 17:37 33.08078 -16.35019 252 ft 32 kts 179°
2026-05-07 17:37 33.07811 -16.35009 250 ft 81 kts 178°
2026-05-07 17:37 33.06317 -16.34954 298 ft 173 kts 178°
2026-05-07 17:38 33.05092 -16.34879 1114 ft 177 kts 180°
2026-05-07 17:38 33.03849 -16.34851 2161 ft 180 kts 182°
2026-05-07 17:38 33.02501 -16.34875 2705 ft 211 kts 183°
2026-05-07 17:38 33.00915 -16.34837 3204 ft 240 kts 180°
2026-05-07 17:39 32.99199 -16.34739 3998 ft 253 kts 180°
2026-05-07 17:39 32.97437 -16.34485 4865 ft 265 kts 165°
2026-05-07 17:39 32.95887 -16.33271 5593 ft 277 kts 133°
2026-05-07 17:39 32.95005 -16.31198 5769 ft 289 kts 102°
2026-05-07 17:40 32.95204 -16.28832 6177 ft 289 kts 65°
2026-05-07 17:40 32.96374 -16.26917 7113 ft 286 kts 43°
2026-05-07 17:40 32.97809 -16.25223 8021 ft 294 kts 41°
2026-05-07 17:40 32.99250 -16.23476 9075 ft 297 kts 43°
2026-05-07 17:41 33.00671 -16.21657 10011 ft 303 kts 44°
2026-05-07 17:41 33.02107 -16.19774 10583 ft 321 kts 44°
2026-05-07 17:41 33.03653 -16.17724 10927 ft 343 kts 44°
2026-05-07 17:41 33.05288 -16.15537 11263 ft 363 kts 45°
2026-05-07 17:42 33.07011 -16.13219 11584 ft 382 kts 45°
2026-05-07 17:42 33.08799 -16.10806 12068 ft 393 kts 45°
2026-05-07 17:42 33.10626 -16.08334 12717 ft 400 kts 45°
2026-05-07 17:42 33.12476 -16.05829 13408 ft 405 kts 45°
2026-05-07 17:43 33.14348 -16.03293 14065 ft 409 kts 45°
2026-05-07 17:43 33.16242 -16.00726 14686 ft 414 kts 45°
2026-05-07 17:43 33.18154 -15.98135 15298 ft 419 kts 45°
2026-05-07 17:43 33.20092 -15.95507 15920 ft 424 kts 45°
2026-05-07 17:44 33.22046 -15.92855 16556 ft 428 kts 45°
2026-05-07 17:44 33.24027 -15.90165 17160 ft 433 kts 45°
2026-05-07 17:44 33.26025 -15.87449 17781 ft 437 kts 45°
2026-05-07 17:44 33.28040 -15.84708 18368 ft 442 kts 45°
2026-05-07 17:45 33.30081 -15.81929 18862 ft 446 kts 45°
2026-05-07 17:45 33.32139 -15.79127 19340 ft 451 kts 45°
2026-05-07 17:45 33.34190 -15.76331 19798 ft 455 kts 45°
2026-05-07 17:45 33.36315 -15.73431 20273 ft 460 kts 45°
2026-05-07 17:46 33.38402 -15.70581 20724 ft 464 kts 46°
2026-05-07 17:46 33.40540 -15.67659 21176 ft 468 kts 46°
2026-05-07 17:46 33.42748 -15.64774 21606 ft 472 kts 43°
2026-05-07 17:46 33.45088 -15.62003 22041 ft 475 kts 40°
2026-05-07 17:47 33.47518 -15.59275 22443 ft 480 kts 39°
2026-05-07 17:47 33.49151 -15.57478 22716 ft 483 kts 39°
2026-05-07 17:47 33.52485 -15.53817 23220 ft 489 kts 39°
2026-05-07 17:47 33.54990 -15.51047 23606 ft 493 kts 40°
2026-05-07 17:48 33.57517 -15.48230 23908 ft 498 kts 40°
2026-05-07 17:48 33.60055 -15.45380 24203 ft 502 kts 41°
2026-05-07 17:48 33.62606 -15.42502 24521 ft 506 kts 41°
2026-05-07 17:48 33.65174 -15.39595 24821 ft 509 kts 41°
2026-05-07 17:49 33.67763 -15.36663 25122 ft 513 kts 41°
2026-05-07 17:49 33.70363 -15.33714 25409 ft 516 kts 42°
2026-05-07 17:49 33.72989 -15.30735 25692 ft 520 kts 42°
2026-05-07 17:49 33.75627 -15.27740 25994 ft 523 kts 42°
2026-05-07 17:50 33.78242 -15.24769 26264 ft 526 kts 42°
2026-05-07 17:50 33.80910 -15.21736 26561 ft 529 kts 43°
2026-05-07 17:50 33.83596 -15.18681 26832 ft 532 kts 43°
2026-05-07 17:50 33.86291 -15.15612 27094 ft 535 kts 43°
2026-05-07 17:51 33.89004 -15.12520 27332 ft 538 kts 43°
2026-05-07 17:51 33.91723 -15.09418 27584 ft 541 kts 43°
2026-05-07 17:51 33.94460 -15.06292 27888 ft 542 kts 44°
2026-05-07 17:51 33.97198 -15.03163 28245 ft 543 kts 44°
2026-05-07 17:52 33.99937 -15.00031 28581 ft 544 kts 44°
2026-05-07 17:52 34.02683 -14.96886 28892 ft 545 kts 44°
2026-05-07 17:52 34.05431 -14.93736 29233 ft 546 kts 44°
2026-05-07 17:52 34.08159 -14.90606 29552 ft 547 kts 45°
2026-05-07 17:53 34.10914 -14.87443 29913 ft 547 kts 45°
2026-05-07 17:53 34.13676 -14.84269 30240 ft 548 kts 45°
2026-05-07 17:53 34.16435 -14.81096 30598 ft 547 kts 45°
2026-05-07 17:53 34.19181 -14.77936 30992 ft 545 kts 45°
2026-05-07 17:54 34.21925 -14.74774 31387 ft 543 kts 45°
2026-05-07 17:54 34.24657 -14.71623 31767 ft 542 kts 45°
2026-05-07 17:54 34.27380 -14.68479 32137 ft 540 kts 45°
2026-05-07 17:54 34.30096 -14.65340 32512 ft 539 kts 45°
2026-05-07 17:55 34.32807 -14.62203 32876 ft 538 kts 45°
2026-05-07 17:55 34.35509 -14.59074 33231 ft 538 kts 45°
2026-05-07 17:55 34.38208 -14.55945 33571 ft 537 kts 45°
2026-05-07 17:55 34.40873 -14.52852 33884 ft 537 kts 45°
2026-05-07 17:56 34.46227 -14.46633 33966 ft 522 kts 45°
2026-05-07 17:56 34.51430 -14.40579 33964 ft 517 kts 45°
2026-05-07 17:57 34.55741 -14.35552 33966 ft 517 kts 45°
2026-05-07 17:57 34.61770 -14.28509 33964 ft 517 kts 45°
2026-05-07 17:58 34.66961 -14.22432 33966 ft 518 kts 45°
2026-05-07 17:58 34.72152 -14.16345 33964 ft 519 kts 45°
2026-05-07 17:59 34.77342 -14.10248 33964 ft 519 kts 45°
2026-05-07 17:59 34.82533 -14.04139 33964 ft 519 kts 45°
2026-05-07 18:00 34.87717 -13.98026 33965 ft 518 kts 45°
2026-05-07 18:00 34.92895 -13.91910 33967 ft 518 kts 45°
2026-05-07 18:01 34.98067 -13.85790 33965 ft 517 kts 45°
2026-05-07 18:01 35.03226 -13.79672 33962 ft 517 kts 45°
2026-05-07 18:02 35.10952 -13.70490 33956 ft 516 kts 45°
2026-05-07 18:03 35.16055 -13.64412 33960 ft 516 kts 45°
2026-05-07 18:03 35.21189 -13.58286 33956 ft 516 kts 45°
2026-05-07 18:04 35.25455 -13.53187 33960 ft 516 kts 46°
2026-05-07 18:04 35.31457 -13.45999 33963 ft 516 kts 46°
2026-05-07 18:05 35.36555 -13.39881 33960 ft 515 kts 46°
2026-05-07 18:05 35.41666 -13.33736 33956 ft 515 kts 46°
2026-05-07 18:06 35.46779 -13.27578 33955 ft 515 kts 46°
2026-05-07 18:06 35.51881 -13.21419 33961 ft 514 kts 46°
2026-05-07 18:07 35.56987 -13.15246 33958 ft 515 kts 46°
2026-05-07 18:07 35.62086 -13.09068 33943 ft 515 kts 46°
2026-05-07 18:08 35.67185 -13.02880 33951 ft 515 kts 47°
2026-05-07 18:08 35.72284 -12.96679 33956 ft 515 kts 47°
2026-05-07 18:09 35.77344 -12.90515 33959 ft 515 kts 47°
2026-05-07 18:09 35.82442 -12.84308 33947 ft 515 kts 47°
2026-05-07 18:10 35.87522 -12.78096 33952 ft 514 kts 47°
2026-05-07 18:10 35.92594 -12.71870 33957 ft 514 kts 47°
2026-05-07 18:11 35.97658 -12.65650 33950 ft 513 kts 47°
2026-05-07 18:11 36.02716 -12.59425 33950 ft 513 kts 48°
2026-05-07 18:11 36.04927 -12.56021 33946 ft 504 kts 65°
2026-05-07 18:12 36.06304 -12.52111 33955 ft 489 kts 81°
2026-05-07 18:12 36.07784 -12.44025 33953 ft 485 kts 85°
2026-05-07 18:13 36.09165 -12.35837 33949 ft 487 kts 85°
2026-05-07 18:13 36.10576 -12.27626 33951 ft 488 kts 85°
2026-05-07 18:14 36.11992 -12.19414 33954 ft 489 kts 85°
2026-05-07 18:14 36.13411 -12.11176 33955 ft 490 kts 85°
2026-05-07 18:15 36.14827 -12.02922 33956 ft 490 kts 85°
2026-05-07 18:15 36.16237 -11.94668 33957 ft 491 kts 85°
2026-05-07 18:16 36.17644 -11.86400 33956 ft 491 kts 85°
2026-05-07 18:16 36.18810 -11.79519 33956 ft 491 kts 85°
2026-05-07 18:17 36.20206 -11.71244 33955 ft 491 kts 85°
2026-05-07 18:17 36.21598 -11.62961 33956 ft 491 kts 85°
2026-05-07 18:18 36.22984 -11.54674 33956 ft 491 kts 85°
2026-05-07 18:18 36.24363 -11.46391 33956 ft 491 kts 85°
2026-05-07 18:19 36.25738 -11.38096 33955 ft 491 kts 85°
2026-05-07 18:19 36.27100 -11.29840 33955 ft 492 kts 84°
2026-05-07 18:20 36.28463 -11.21542 33958 ft 492 kts 84°
2026-05-07 18:20 36.29822 -11.13232 33960 ft 492 kts 84°
2026-05-07 18:21 36.31177 -11.04907 33954 ft 492 kts 84°
2026-05-07 18:21 36.32524 -10.96592 33968 ft 492 kts 84°
2026-05-07 18:22 36.33870 -10.88246 33958 ft 493 kts 84°
2026-05-07 18:22 36.35208 -10.79908 33962 ft 493 kts 84°
2026-05-07 18:23 36.36533 -10.71613 33960 ft 493 kts 84°
2026-05-07 18:23 36.37865 -10.63239 33966 ft 494 kts 84°
2026-05-07 18:24 36.39188 -10.54879 33964 ft 494 kts 84°
2026-05-07 18:24 36.40508 -10.46498 33962 ft 494 kts 84°
2026-05-07 18:25 36.41821 -10.38126 33959 ft 494 kts 84°
2026-05-07 18:25 36.43113 -10.29838 33962 ft 495 kts 84°
2026-05-07 18:26 36.44415 -10.21454 33954 ft 497 kts 84°
2026-05-07 18:26 36.45734 -10.12894 33975 ft 509 kts 84°
2026-05-07 18:27 36.47066 -10.04251 33956 ft 504 kts 84°
2026-05-07 18:27 36.47939 -9.98574 33960 ft 497 kts 84°
2026-05-07 18:28 36.49646 -9.87359 33963 ft 497 kts 84°
2026-05-07 18:28 36.50939 -9.78790 33850 ft 512 kts 84°
2026-05-07 18:28 36.51596 -9.74428 33576 ft 514 kts 84°
2026-05-07 18:29 36.52254 -9.70067 33308 ft 514 kts 83°
2026-05-07 18:29 36.52920 -9.65690 33041 ft 514 kts 82°
2026-05-07 18:29 36.53691 -9.61335 32781 ft 515 kts 81°
2026-05-07 18:29 36.54494 -9.56988 32523 ft 515 kts 81°
2026-05-07 18:30 36.55291 -9.52646 32266 ft 515 kts 81°
2026-05-07 18:30 36.56079 -9.48304 32006 ft 513 kts 81°
2026-05-07 18:30 36.56858 -9.43982 31755 ft 511 kts 81°
2026-05-07 18:30 36.57630 -9.39669 31502 ft 509 kts 81°
2026-05-07 18:31 36.58396 -9.35376 31247 ft 506 kts 81°
2026-05-07 18:31 36.59144 -9.31165 31008 ft 504 kts 81°
2026-05-07 18:31 36.59897 -9.26915 30765 ft 502 kts 81°
2026-05-07 18:31 36.60645 -9.22681 30526 ft 500 kts 81°
2026-05-07 18:32 36.61389 -9.18462 30279 ft 497 kts 81°
2026-05-07 18:32 36.62126 -9.14269 30040 ft 495 kts 80°
2026-05-07 18:32 36.62860 -9.10087 29761 ft 493 kts 80°
2026-05-07 18:32 36.63590 -9.05920 29487 ft 490 kts 80°
2026-05-07 18:33 36.64314 -9.01781 29208 ft 488 kts 80°
2026-05-07 18:33 36.65031 -8.97666 28812 ft 484 kts 80°
2026-05-07 18:33 36.65743 -8.93574 28098 ft 482 kts 80°
2026-05-07 18:33 36.66450 -8.89506 27360 ft 480 kts 80°
2026-05-07 18:34 36.67152 -8.85448 26645 ft 477 kts 80°
2026-05-07 18:34 36.67848 -8.81423 25932 ft 475 kts 80°
2026-05-07 18:34 36.68541 -8.77405 25215 ft 473 kts 80°
2026-05-07 18:34 36.69229 -8.73410 24515 ft 470 kts 80°
2026-05-07 18:35 36.69911 -8.69439 23911 ft 466 kts 80°
2026-05-07 18:35 36.70576 -8.65563 23304 ft 461 kts 80°
2026-05-07 18:35 36.71243 -8.61667 22583 ft 457 kts 80°
2026-05-07 18:35 36.71900 -8.57822 21933 ft 452 kts 80°
2026-05-07 18:36 36.72551 -8.54000 21314 ft 447 kts 80°
2026-05-07 18:36 36.73194 -8.50219 20632 ft 443 kts 81°
2026-05-07 18:36 36.73830 -8.46471 19883 ft 441 kts 81°
2026-05-07 18:36 36.74461 -8.42735 19093 ft 442 kts 81°
2026-05-07 18:37 36.75096 -8.38974 18234 ft 444 kts 81°
2026-05-07 18:37 36.75517 -8.36476 17594 ft 445 kts 81°
2026-05-07 18:37 36.76362 -8.31453 16575 ft 439 kts 81°
2026-05-07 18:37 36.76982 -8.27768 15767 ft 428 kts 80°
2026-05-07 18:38 36.77587 -8.24162 14762 ft 421 kts 80°
2026-05-07 18:38 36.78143 -8.20842 13879 ft 413 kts 80°
2026-05-07 18:38 36.78723 -8.17371 12805 ft 405 kts 80°
2026-05-07 18:38 36.79291 -8.13957 11930 ft 394 kts 80°
2026-05-07 18:39 36.79834 -8.10699 10999 ft 386 kts 80°
2026-05-07 18:39 36.80368 -8.07455 10462 ft 372 kts 81°
2026-05-07 18:39 36.80860 -8.04396 10193 ft 349 kts 81°
2026-05-07 18:39 36.81348 -8.01486 9987 ft 335 kts 81°
2026-05-07 18:40 36.81811 -7.98702 9866 ft 320 kts 81°
2026-05-07 18:40 36.82255 -7.96040 9719 ft 307 kts 81°
2026-05-07 18:40 36.82680 -7.93480 9530 ft 297 kts 81°
2026-05-07 18:40 36.83098 -7.90962 9094 ft 296 kts 81°
2026-05-07 18:41 36.83505 -7.88462 8676 ft 294 kts 81°
2026-05-07 18:41 36.83895 -7.85989 8400 ft 287 kts 81°
2026-05-07 18:41 36.84285 -7.83563 8029 ft 283 kts 80°
2026-05-07 18:41 36.84659 -7.81191 7675 ft 274 kts 79°
2026-05-07 18:42 36.85033 -7.78884 7151 ft 269 kts 79°
2026-05-07 18:42 36.85403 -7.76616 6639 ft 265 kts 79°
2026-05-07 18:42 36.85766 -7.74381 6110 ft 260 kts 78°
2026-05-07 18:42 36.86165 -7.72181 5470 ft 259 kts 74°
2026-05-07 18:43 36.86970 -7.70178 5021 ft 259 kts 52°
2026-05-07 18:43 36.88363 -7.68831 4799 ft 252 kts 24°
2026-05-07 18:43 36.90026 -7.68318 4646 ft 243 kts
2026-05-07 18:43 36.91678 -7.68108 4521 ft 234 kts
2026-05-07 18:44 36.93268 -7.67944 4381 ft 225 kts
2026-05-07 18:44 36.94788 -7.67965 4219 ft 219 kts 350°
2026-05-07 18:44 36.96197 -7.68598 4028 ft 212 kts 327°
2026-05-07 18:44 36.97213 -7.69838 3939 ft 199 kts 306°
2026-05-07 18:45 36.97829 -7.71353 3762 ft 193 kts 287°
2026-05-07 18:45 36.98109 -7.72943 3634 ft 183 kts 279°
2026-05-07 18:45 36.98306 -7.74491 3442 ft 176 kts 279°
2026-05-07 18:45 36.98513 -7.75954 3213 ft 166 kts 280°
2026-05-07 18:46 36.98713 -7.77326 2975 ft 155 kts 280°
2026-05-07 18:46 36.98893 -7.78603 2771 ft 144 kts 280°
2026-05-07 18:46 36.99064 -7.79812 2615 ft 137 kts 280°
2026-05-07 18:46 36.99221 -7.80937 2427 ft 130 kts 281°
2026-05-07 18:47 36.99374 -7.82014 2265 ft 121 kts 281°
2026-05-07 18:47 36.99520 -7.83041 2100 ft 119 kts 282°
2026-05-07 18:47 36.99664 -7.84065 1932 ft 120 kts 282°
2026-05-07 18:47 36.99812 -7.85087 1765 ft 119 kts 282°
2026-05-07 18:48 36.99954 -7.86107 1611 ft 120 kts 283°
2026-05-07 18:48 37.00103 -7.87133 1448 ft 121 kts 283°
2026-05-07 18:48 37.00248 -7.88168 1284 ft 121 kts 282°
2026-05-07 18:48 37.00391 -7.89196 1101 ft 118 kts 284°
2026-05-07 18:49 37.00570 -7.90206 944 ft 119 kts 280°
2026-05-07 18:49 37.00704 -7.91210 735 ft 115 kts 278°
2026-05-07 18:49 37.00817 -7.92200 648 ft 117 kts 279°
2026-05-07 18:49 37.00986 -7.93208 488 ft 121 kts 275°
2026-05-07 18:50 37.01116 -7.94247 348 ft 121 kts 277°
2026-05-07 18:50 37.01251 -7.95272 168 ft 117 kts 279°
2026-05-07 18:50 37.01396 -7.96254 31 ft 110 kts 276°
2026-05-07 18:50 37.01506 -7.97034 27 ft 72 kts 278°
2026-05-07 18:51 37.01583 -7.97591 27 ft 56 kts 281°
2026-05-07 18:51 37.01632 -7.97845 26 ft 13 kts 318°
2026-05-07 18:51 37.01707 -7.97829 26 ft 11 kts 40°
2026-05-07 18:51 37.01751 -7.97742 26 ft 14 kts 65°
2026-05-07 18:52 37.01768 -7.97596 26 ft 20 kts 92°
2026-05-07 18:52 37.01746 -7.97422 26 ft 20 kts 99°
2026-05-07 18:52 37.01723 -7.97252 28 ft 19 kts 100°
2026-05-07 18:52 37.01698 -7.97088 29 ft 19 kts 101°
2026-05-07 18:53 37.01679 -7.96959 29 ft 11 kts 99°
2026-05-07 18:53 37.01716 -7.96906 29 ft 8 kts 13°
2026-05-07 18:53 37.01772 -7.96893 27 ft 8 kts 10°
2026-05-07 18:53 37.01823 -7.96870 32 ft 7 kts 38°
2026-05-07 18:54 37.01829 -7.96842 30 ft 5 kts 88°
2026-05-07 18:54 37.01823 -7.96792 28 ft 6 kts 100°
2026-05-07 18:54 37.01799 -7.96775 29 ft 5 kts 170°
2026-05-07 18:54 37.01767 -7.96776 29 ft 1 kts 186°
2026-05-07 18:55 37.01760 -7.96777 31 ft 1 kts 186°
2026-05-07 18:55 37.01753 -7.96778 30 ft 1 kts 187°
2026-05-07 18:55 37.01747 -7.96779 28 ft 0 kts 188°
2026-05-07 18:56 37.01748 -7.96779 28 ft 0 kts 188°